CW6391 Weather Reports


Display with metric or nautical units.
time (UTC)temp
F
wind
direction
speed
MPH
gust
MPH
rain 1hr
in
rain 24hr
in
rain mn
in
humidity
%
barometer
mb
20260902194614 65 217 0.0 1.0 0.00 0.00 0.00 63 1020.2
20260902194107 65 303 0.0 1.0 0.00 0.00 0.00 62 1020.2
20260902193610 65 314 0.0 1.0 0.00 0.00 0.00 61 1020.2
20260902193107 66 297 0.0 1.0 0.00 0.00 0.00 61 1020.2
20260902192616 66 299 1.0 1.0 0.00 0.00 0.00 61 1020.2
20260902192107 66 300 0.0 1.0 0.00 0.00 0.00 60 1019.8
20260902191607 66 287 0.0 1.0 0.00 0.00 0.00 60 1019.8
20260902191110 67 315 0.0 1.0 0.00 0.00 0.00 59 1019.8
20260902190607 67 269 0.0 1.0 0.00 0.00 0.00 58 1019.8
20260902190107 67 282 0.0 1.0 0.00 0.00 0.00 58 1019.8
20260902185607 67 281 0.0 1.0 0.00 0.00 0.00 57 1019.8
20260902185108 68 305 0.0 2.0 0.00 0.00 0.00 56 1019.8
20260902184607 68 304 1.0 2.0 0.00 0.00 0.00 55 1019.8
20260902184107 69 307 1.0 2.0 0.00 0.00 0.00 54 1019.5
20260902183612 69 304 1.0 3.0 0.00 0.00 0.00 52 1019.5
20260902183107 69 306 1.0 4.0 0.00 0.00 0.00 52 1019.5
20260902182613 69 289 1.0 4.0 0.00 0.00 0.00 52 1019.5
20260902182110 70 284 1.0 3.0 0.00 0.00 0.00 52 1019.5
20260902181608 70 258 1.0 4.0 0.00 0.00 0.00 51 1019.5
20260902181110 70 258 1.0 4.0 0.00 0.00 0.00 51 1019.5
20260902180607 70 267 1.0 6.0 0.00 0.00 0.00 51 1019.5
20260902180113 71 304 1.0 5.0 0.00 0.00 0.00 51 1019.2
20260902175607 71 234 2.0 4.0 0.00 0.00 0.00 50 1019.2
20260902175110 71 270 1.0 3.0 0.00 0.00 0.00 51 1019.2
20260902174611 71 283 1.0 5.0 0.00 0.00 0.00 50 1019.2
20260902174107 72 287 1.0 5.0 0.00 0.00 0.00 49 1019.2
20260902173607 72 260 1.0 5.0 0.00 0.00 0.00 49 1019.2
20260902173110 72 282 1.0 8.0 0.00 0.00 0.00 49 1019.2
20260902172607 72 305 3.0 6.0 0.00 0.00 0.00 48 1019.2
20260902172107 73 300 1.0 6.0 0.00 0.00 0.00 49 1019.2
20260902171610 73 295 2.0 6.0 0.00 0.00 0.00 49 1019.2
20260902171107 73 295 2.0 5.0 0.00 0.00 0.00 48 1018.8
20260902170607 73 316 2.0 6.0 0.00 0.00 0.00 48 1019.2
20260902170107 73 309 2.0 4.0 0.00 0.00 0.00 47 1019.2
20260902165607 73 312 1.0 5.0 0.00 0.00 0.00 47 1019.2
20260902165107 73 312 3.0 7.0 0.00 0.00 0.00 47 1019.2
20260902164610 74 301 2.0 5.0 0.00 0.00 0.00 46 1019.2
20260902164110 74 294 2.0 5.0 0.00 0.00 0.00 46 1019.2
20260902163613 74 311 1.0 3.0 0.00 0.00 0.00 46 1018.8
20260902163110 73 308 1.0 4.0 0.00 0.00 0.00 46 1018.8
20260902162610 74 310 1.0 7.0 0.00 0.00 0.00 45 1018.8
20260902162108 74 273 3.0 7.0 0.00 0.00 0.00 45 1019.2
20260902161610 74 318 1.0 7.0 0.00 0.00 0.00 45 1019.2
20260902161113 74 311 4.0 7.0 0.00 0.00 0.00 44 1019.2
20260902160607 74 262 3.0 7.0 0.00 0.00 0.00 43 1019.2
20260902160107 75 305 3.0 7.0 0.00 0.00 0.00 43 1019.2
20260902155607 75 282 1.0 7.0 0.00 0.00 0.00 43 1019.2
20260902155110 75 315 3.0 7.0 0.00 0.00 0.00 42 1019.2
20260902154613 76 278 2.0 6.0 0.00 0.00 0.00 42 1019.2
20260902154107 76 259 1.0 5.0 0.00 0.00 0.00 42 1019.2
20260902153610 76 263 1.0 5.0 0.00 0.00 0.00 42 1019.2
20260902153107 76 287 2.0 6.0 0.00 0.00 0.00 42 1019.2
20260902152610 76 279 3.0 7.0 0.00 0.00 0.00 41 1019.2
20260902152113 76 287 2.0 7.0 0.00 0.00 0.00 41 1019.2
20260902151607 77 278 3.0 7.0 0.00 0.00 0.00 41 1019.2
20260902151107 76 291 3.0 6.0 0.00 0.00 0.00 40 1019.2
20260902150610 78 285 2.0 7.0 0.00 0.00 0.00 39 1019.2
20260902150113 78 292 1.0 4.0 0.00 0.00 0.00 39 1019.2
20260902145613 79 277 1.0 3.0 0.00 0.00 0.00 38 1019.2
20260902145107 80 244 0.0 5.0 0.00 0.00 0.00 39 1019.2
20260902144613 78 244 2.0 5.0 0.00 0.00 0.00 40 1019.2
20260902144116 77 309 1.0 7.0 0.00 0.00 0.00 40 1019.2
20260902143611 78 260 1.0 5.0 0.00 0.00 0.00 41 1019.2
20260902143107 78 329 2.0 7.0 0.00 0.00 0.00 41 1019.2
20260902142607 76 304 2.0 5.0 0.00 0.00 0.00 43 1019.2
20260902142107 77 318 3.0 7.0 0.00 0.00 0.00 42 1019.5
20260902141616 76 307 1.0 6.0 0.00 0.00 0.00 43 1019.5
20260902141107 76 314 1.0 8.0 0.00 0.00 0.00 43 1019.5
20260902140610 76 292 2.0 6.0 0.00 0.00 0.00 42 1019.5
20260902140107 76 265 2.0 7.0 0.00 0.00 0.00 41 1019.5
20260902135610 76 278 2.0 6.0 0.00 0.00 0.00 42 1019.5
20260902135108 76 242 2.0 6.0 0.00 0.00 0.00 40 1019.5
20260902134610 77 292 2.0 6.0 0.00 0.00 0.00 39 1019.5
20260902134107 77 197 1.0 7.0 0.00 0.00 0.00 39 1019.5
20260902133610 78 268 2.0 10.0 0.00 0.00 0.00 38 1019.5
20260902133107 78 234 1.0 8.0 0.00 0.00 0.00 39 1019.5
20260902132610 77 243 4.0 10.0 0.00 0.00 0.00 39 1019.5
20260902132107 78 284 2.0 8.0 0.00 0.00 0.00 37 1019.5
20260902131607 78 214 1.0 11.0 0.00 0.00 0.00 40 1019.5
20260902131107 78 244 1.0 8.0 0.00 0.00 0.00 40 1019.5
20260902130607 77 280 2.0 9.0 0.00 0.00 0.00 39 1019.5
20260902130107 78 229 4.0 11.0 0.00 0.00 0.00 38 1019.5
20260902125607 77 259 1.0 7.0 0.00 0.00 0.00 40 1019.5
20260902125110 78 309 3.0 9.0 0.00 0.00 0.00 37 1019.8
20260902124607 80 174 1.0 9.0 0.00 0.00 0.00 37 1019.5
20260902124110 79 231 2.0 6.0 0.00 0.00 0.00 37 1019.8
20260902123611 77 187 1.0 7.0 0.00 0.00 0.00 40 1019.8
20260902123110 78 191 4.0 7.0 0.00 0.00 0.00 38 1019.8
20260902122610 77 251 1.0 8.0 0.00 0.00 0.00 40 1019.8
20260902122107 76 225 2.0 11.0 0.00 0.00 0.00 40 1019.8
20260902121610 78 221 2.0 10.0 0.00 0.00 0.00 38 1019.8
20260902121113 78 182 6.0 10.0 0.00 0.00 0.00 38 1019.8
20260902120607 78 253 3.0 6.0 0.00 0.00 0.00 38 1019.8
20260902120110 77 192 2.0 9.0 0.00 0.00 0.00 40 1020.2
20260902115608 78 187 1.0 9.0 0.00 0.00 0.00 40 1020.2
20260902115110 76 278 4.0 9.0 0.00 0.00 0.00 40 1020.2
20260902114607 77 212 2.0 10.0 0.00 0.00 0.00 40 1020.2
20260902114107 77 255 5.0 9.0 0.00 0.00 0.00 39 1020.2
20260902113610 76 219 3.0 11.0 0.00 0.00 0.00 40 1020.5
20260902113113 76 252 5.0 11.0 0.00 0.00 0.00 40 1020.5
20260902112610 77 230 4.0 11.0 0.00 0.00 0.00 38 1020.5
20260902112107 76 222 3.0 8.0 0.00 0.00 0.00 39 1020.5
20260902111613 78 190 3.0 7.0 0.00 0.00 0.00 38 1020.5
20260902111107 78 223 1.0 6.0 0.00 0.00 0.00 39 1020.5
20260902110608 77 225 2.0 11.0 0.00 0.00 0.00 39 1020.5
20260902110107 77 195 1.0 9.0 0.00 0.00 0.00 40 1020.5
20260902105616 76 200 2.0 7.0 0.00 0.00 0.00 41 1020.5
20260902105111 76 207 1.0 6.0 0.00 0.00 0.00 42 1020.5
20260902104610 76 221 2.0 7.0 0.00 0.00 0.00 41 1020.5
20260902104107 77 179 2.0 7.0 0.00 0.00 0.00 40 1020.5
20260902103613 75 266 1.0 9.0 0.00 0.00 0.00 43 1020.9
20260902103110 76 274 3.0 7.0 0.00 0.00 0.00 43 1020.9
20260902102607 74 212 1.0 6.0 0.00 0.00 0.00 45 1020.9
20260902102107 74 187 2.0 11.0 0.00 0.00 0.00 47 1020.9
20260902101607 74 225 2.0 7.0 0.00 0.00 0.00 46 1020.9
20260902101107 74 235 3.0 6.0 0.00 0.00 0.00 45 1020.9
20260902100607 74 184 1.0 5.0 0.00 0.00 0.00 46 1020.9
20260902100107 74 156 2.0 5.0 0.00 0.00 0.00 45 1020.9
20260902095610 74 164 0.0 5.0 0.00 0.00 0.00 47 1020.9
20260902095107 74 229 1.0 5.0 0.00 0.00 0.00 46 1020.9
20260902094607 73 252 1.0 5.0 0.00 0.00 0.00 48 1020.9
20260902094113 73 179 2.0 4.0 0.00 0.00 0.00 47 1020.9
20260902093616 72 191 1.0 5.0 0.00 0.00 0.00 47 1020.9
20260902093107 74 162 1.0 5.0 0.00 0.00 0.00 47 1020.9
20260902092613 74 144 1.0 3.0 0.00 0.00 0.00 48 1020.9
20260902092113 71 136 1.0 4.0 0.00 0.00 0.00 52 1020.9
20260902091613 71 162 1.0 4.0 0.00 0.00 0.00 52 1021.3
20260902091107 71 186 2.0 4.0 0.00 0.00 0.00 51 1020.9
20260902090610 71 152 2.0 4.0 0.00 0.00 0.00 52 1020.9
20260902090110 71 0 0.0 3.0 0.00 0.00 0.00 53 1021.3
20260902085608 70 194 1.0 5.0 0.00 0.00 0.00 54 1021.3
20260902085110 69 174 0.0 5.0 0.00 0.00 0.00 54 1021.3
20260902084607 70 109 2.0 5.0 0.00 0.00 0.00 54 1021.3
20260902084107 69 104 1.0 3.0 0.00 0.00 0.00 55 1021.3
20260902083607 68 110 0.0 3.0 0.00 0.00 0.00 58 1021.3
20260902083107 68 158 1.0 4.0 0.00 0.00 0.00 58 1021.3
20260902082607 67 169 1.0 6.0 0.00 0.00 0.00 59 1020.9
20260902082107 67 197 2.0 4.0 0.00 0.00 0.00 59 1020.9
20260902081613 66 158 2.0 5.0 0.00 0.00 0.00 61 1021.3
20260902081116 65 182 1.0 4.0 0.00 0.00 0.00 62 1021.3
20260902080607 65 182 3.0 4.0 0.00 0.00 0.00 62 1021.3
20260902080111 65 192 3.0 4.0 0.00 0.00 0.00 62 1021.3
20260902075610 64 104 1.0 9.0 0.00 0.00 0.00 63 1020.9
20260902075107 64 95 4.0 9.0 0.00 0.00 0.00 62 1020.9
20260902074611 64 183 2.0 5.0 0.00 0.00 0.00 62 1020.9
20260902074116 64 173 1.0 4.0 0.00 0.00 0.00 63 1020.9
20260902073607 64 127 0.0 3.0 0.00 0.00 0.00 65 1020.9
20260902073114 64 107 2.0 3.0 0.00 0.00 0.00 64 1020.9
20260902072607 63 154 1.0 3.0 0.00 0.00 0.00 65 1020.9
20260902072113 62 130 1.0 4.0 0.00 0.00 0.00 67 1020.9
20260902071610 62 173 0.0 4.0 0.00 0.00 0.00 69 1020.9
20260902071110 62 85 1.0 4.0 0.00 0.00 0.00 69 1020.9
20260902070608 62 186 2.0 4.0 0.00 0.00 0.00 70 1020.9
20260902070111 61 149 2.0 4.0 0.00 0.00 0.00 70 1020.9
20260902065607 61 104 1.0 2.0 0.00 0.00 0.00 72 1020.9
20260902065107 60 30 1.0 3.0 0.00 0.00 0.00 72 1020.9
20260902064613 60 292 0.0 2.0 0.00 0.00 0.00 73 1020.9
20260902064107 59 51 1.0 3.0 0.00 0.00 0.00 72 1020.9
20260902063607 59 88 1.0 3.0 0.00 0.00 0.00 72 1020.9
20260902063107 59 90 0.0 2.0 0.00 0.00 0.00 72 1020.9
20260902062607 59 101 0.0 2.0 0.00 0.00 0.00 71 1020.9
20260902062107 59 101 1.0 2.0 0.00 0.00 0.00 70 1020.9
20260902061110 60 116 0.0 1.0 0.00 0.00 0.00 70 1020.9
20260902060607 59 115 0.0 2.0 0.00 0.00 0.00 72 1020.9
20260902060107 58 155 0.0 1.0 0.00 0.00 0.00 75 1020.9
20260902055607 56 62 0.0 1.0 0.00 0.00 0.00 78 1020.9
20260902055110 56 29 0.0 2.0 0.00 0.00 0.00 79 1020.9
20260902054613 55 94 1.0 3.0 0.00 0.00 0.00 80 1020.9
20260902054110 55 97 1.0 3.0 0.00 0.00 0.00 82 1020.9
20260902053607 54 81 1.0 2.0 0.00 0.00 0.00 83 1020.9
20260902053110 53 115 1.0 4.0 0.00 0.00 0.00 84 1020.9
20260902052607 53 71 2.0 4.0 0.00 0.00 0.00 83 1020.9
20260902052108 53 70 1.0 3.0 0.00 0.00 0.00 85 1020.9
20260902051608 53 88 1.0 3.0 0.00 0.00 0.00 86 1020.9
20260902051110 53 111 1.0 3.0 0.00 0.00 0.00 86 1020.9
20260902050607 52 124 1.0 3.0 0.00 0.00 0.00 86 1020.9
20260902050107 52 92 1.0 3.0 0.00 0.00 0.00 86 1020.9
20260902045610 52 109 1.0 2.0 0.00 0.00 0.00 87 1020.5
20260902045110 52 80 0.0 2.0 0.00 0.00 0.00 87 1020.5
20260902044608 52 71 1.0 3.0 0.00 0.00 0.00 87 1020.5
20260902044116 52 59 2.0 3.0 0.00 0.00 0.00 87 1020.5
20260902043613 52 69 1.0 3.0 0.00 0.00 0.00 87 1020.5
20260902043107 52 48 1.0 3.0 0.00 0.00 0.00 87 1020.5
20260902042608 52 65 1.0 2.0 0.00 0.00 0.00 87 1020.5
20260902042107 52 57 0.0 3.0 0.00 0.00 0.00 86 1020.5
20260902041611 52 236 1.0 3.0 0.00 0.00 0.00 86 1020.5
20260902041113 52 249 1.0 2.0 0.00 0.00 0.00 87 1020.5
20260902040610 52 88 0.0 3.0 0.00 0.00 0.00 87 1020.5
20260902040110 52 66 2.0 3.0 0.00 0.00 0.00 87 1020.5
20260902035610 52 7 0.0 3.0 0.00 0.00 0.00 87 1020.5
20260902035107 52 64 2.0 3.0 0.00 0.00 0.00 87 1020.5
20260902034613 53 70 1.0 2.0 0.00 0.00 0.00 87 1020.5
20260902034107 53 87 1.0 3.0 0.00 0.00 0.00 86 1020.5
20260902033607 53 88 1.0 3.0 0.00 0.00 0.00 86 1020.5
20260902033107 53 140 0.0 2.0 0.00 0.00 0.00 86 1020.5
20260902032607 53 92 1.0 3.0 0.00 0.00 0.00 86 1020.5
20260902032108 53 66 1.0 3.0 0.00 0.00 0.00 86 1020.5
20260902031610 53 85 1.0 2.0 0.00 0.00 0.00 86 1020.5
20260902031107 53 109 1.0 4.0 0.00 0.00 0.00 86 1020.5
20260902030607 53 137 0.0 2.0 0.00 0.00 0.00 86 1020.5
20260902030107 53 196 0.0 3.0 0.00 0.00 0.00 86 1020.5
20260902025611 53 45 1.0 3.0 0.00 0.00 0.00 86 1020.5
20260902025111 53 80 2.0 3.0 0.00 0.00 0.00 86 1020.5
20260902024610 53 284 0.0 1.0 0.00 0.00 0.00 85 1020.5
20260902024107 53 157 1.0 1.0 0.00 0.00 0.00 86 1020.5
20260902023610 53 121 0.0 1.0 0.00 0.00 0.00 85 1020.9
20260902023107 53 332 0.0 1.0 0.00 0.00 0.00 85 1020.9
20260902022607 53 49 0.0 4.0 0.00 0.00 0.00 85 1020.9
20260902022113 54 73 3.0 4.0 0.00 0.00 0.00 85 1020.5
20260902021610 54 50 2.0 3.0 0.00 0.00 0.00 84 1020.5
20260902021110 54 159 0.0 2.0 0.00 0.00 0.00 84 1020.5
20260902020607 54 123 1.0 2.0 0.00 0.00 0.00 84 1020.5
20260902020107 54 159 0.0 2.0 0.00 0.00 0.00 84 1020.5
20260902015607 54 167 1.0 2.0 0.00 0.00 0.00 83 1020.9
20260902015107 54 181 1.0 3.0 0.00 0.00 0.00 83 1020.9
20260902014613 55 166 2.0 3.0 0.00 0.00 0.00 83 1020.9
20260902014114 55 161 0.0 3.0 0.00 0.00 0.00 83 1020.9
20260902013607 55 172 1.0 2.0 0.00 0.00 0.00 83 1020.9
20260902013110 55 164 1.0 2.0 0.00 0.00 0.00 83 1020.9
20260902012607 55 119 0.0 2.0 0.00 0.00 0.00 83 1020.9
20260902012107 55 132 1.0 3.0 0.00 0.00 0.00 83 1020.9
20260902011607 55 158 1.0 3.0 0.00 0.00 0.00 83 1020.9
20260902011110 55 182 0.0 2.0 0.00 0.00 0.00 83 1020.9
20260902010607 55 138 1.0 2.0 0.00 0.00 0.00 83 1020.9
20260902010107 55 187 1.0 2.0 0.00 0.00 0.00 84 1020.9
20260902005607 55 344 0.0 1.0 0.00 0.00 0.00 83 1020.9
20260902005108 55 197 0.0 1.0 0.00 0.00 0.00 83 1020.9
20260902004607 55 194 0.0 1.0 0.00 0.00 0.00 83 1020.9
20260902004108 55 295 0.0 2.0 0.00 0.00 0.00 82 1020.9
20260902003607 56 263 0.0 1.0 0.00 0.00 0.00 82 1020.9
20260902003110 56 239 0.0 2.0 0.00 0.00 0.00 82 1021.3
20260902002610 56 141 0.0 2.0 0.00 0.00 0.00 82 1020.9
20260902002110 56 160 0.0 1.0 0.00 0.00 0.00 82 1020.9
20260902001607 56 154 0.0 1.0 0.00 0.00 0.00 81 1020.9
20260902001107 56 354 0.0 2.0 0.00 0.00 0.00 81 1020.9
20260902000610 56 123 0.0 2.0 0.00 0.00 0.00 81 1020.9
20260902000107 56 78 1.0 2.0 0.00 0.00 0.00 81 1020.9
20260901235613 56 17 0.0 1.0 0.00 0.00 0.00 81 1020.9
20260901235113 57 86 0.0 1.0 0.00 0.00 0.00 81 1020.9
20260901234614 57 77 1.0 2.0 0.00 0.00 0.00 81 1020.9
20260901234107 57 157 0.0 1.0 0.00 0.00 0.00 81 1020.9
20260901233607 57 57 1.0 2.0 0.00 0.00 0.00 81 1020.9
20260901233110 57 124 0.0 1.0 0.00 0.00 0.00 80 1020.9
20260901232607 57 204 0.0 3.0 0.00 0.00 0.00 80 1020.9
20260901232107 57 78 2.0 3.0 0.00 0.00 0.00 80 1020.9
20260901231607 57 80 0.0 2.0 0.00 0.00 0.00 79 1020.9
20260901231108 57 169 1.0 3.0 0.00 0.00 0.00 79 1020.9
20260901230613 57 330 1.0 2.0 0.00 0.00 0.00 79 1020.9
20260901230110 57 21 0.0 1.0 0.00 0.00 0.00 80 1020.9
20260901225610 57 95 0.0 2.0 0.00 0.00 0.00 79 1020.9
20260901225108 57 87 0.0 2.0 0.00 0.00 0.00 79 1020.9
20260901224607 58 56 1.0 2.0 0.00 0.00 0.00 79 1020.9
20260901224116 58 95 0.0 2.0 0.00 0.00 0.00 79 1020.9
20260901223610 58 148 1.0 2.0 0.00 0.00 0.00 78 1020.9
20260901223110 58 162 1.0 3.0 0.00 0.00 0.00 78 1020.9
20260901222607 58 166 1.0 3.0 0.00 0.00 0.00 78 1020.9
20260901222107 58 71 2.0 3.0 0.00 0.00 0.00 78 1020.9
20260901221607 58 128 1.0 2.0 0.00 0.00 0.00 78 1020.9
20260901221107 58 60 0.0 2.0 0.00 0.00 0.00 77 1020.9
20260901220607 58 103 0.0 3.0 0.00 0.00 0.00 77 1020.9
20260901220113 59 94 1.0 3.0 0.00 0.00 0.00 77 1020.9
20260901215613 59 148 1.0 2.0 0.00 0.00 0.00 77 1020.9
20260901215113 59 101 0.0 2.0 0.00 0.00 0.00 76 1020.9
20260901214610 59 84 1.0 3.0 0.00 0.00 0.00 76 1020.9
20260901214108 59 93 1.0 3.0 0.00 0.00 0.00 76 1020.9
20260901213607 59 93 1.0 3.0 0.00 0.00 0.00 76 1020.9
20260901213110 59 93 1.0 3.0 0.00 0.00 0.00 76 1020.9
20260901212607 60 88 1.0 3.0 0.00 0.00 0.00 75 1020.9
20260901212107 60 173 0.0 1.0 0.00 0.00 0.00 75 1020.9
20260901211613 60 193 1.0 1.0 0.00 0.01 0.00 75 1020.9
20260901211107 60 214 0.0 1.0 0.00 0.08 0.00 74 1020.9
20260901210613 60 207 0.0 2.0 0.00 0.08 0.00 73 1020.5
20260901210107 61 281 1.0 2.0 0.00 0.08 0.00 73 1020.9
20260901205613 61 222 0.0 2.0 0.00 0.08 0.00 73 1020.5
20260901205110 61 204 1.0 1.0 0.00 0.08 0.00 72 1020.5
20260901204607 61 210 0.0 1.0 0.00 0.08 0.00 72 1020.5
20260901204110 61 199 0.0 1.0 0.00 0.08 0.00 71 1020.5
20260901203607 62 199 0.0 1.0 0.00 0.08 0.00 71 1020.5
20260901203108 62 245 0.0 1.0 0.00 0.08 0.00 71 1020.5
20260901202607 62 233 0.0 1.0 0.00 0.08 0.00 70 1020.5
20260901202107 62 230 0.0 1.0 0.00 0.08 0.00 70 1020.5
20260901201610 62 143 0.0 2.0 0.00 0.08 0.00 69 1020.5
20260901201108 63 110 1.0 2.0 0.00 0.08 0.00 69 1020.5
20260901200613 63 150 1.0 1.0 0.00 0.08 0.00 68 1020.5
20260901200107 63 210 0.0 1.0 0.00 0.08 0.00 67 1020.5
20260901195616 63 208 0.0 1.0 0.00 0.08 0.00 67 1020.5
20260901195110 63 208 0.0 1.0 0.00 0.08 0.00 66 1020.5